| time (UTC) | temp C | wind direction | speed KPH | gust KPH | rain 1hr cm | rain 24hr cm | rain mn cm | humidity % | barometer mb |
| 20260507060650 | 8 | 287 | 0.0 | 3.2 | 0.00 | 0.00 | 0.00 | 36 | 998.4 |
| 20260507060146 | 9 | 282 | 0.0 | 1.6 | 0.00 | 0.00 | 0.00 | 37 | 998.4 |
| 20260507055642 | 9 | 292 | 0.0 | 1.6 | 0.00 | 0.00 | 0.00 | 35 | 998.1 |
| 20260507055138 | 9 | 293 | 0.0 | 0.0 | 0.00 | 0.00 | 0.00 | 36 | 998.1 |
| 20260507054634 | 9 | 286 | 0.0 | 1.6 | 0.00 | 0.00 | 0.00 | 35 | 998.1 |
| 20260507054131 | 9 | 285 | 3.2 | 6.4 | 0.00 | 0.00 | 0.00 | 34 | 998.1 |
| 20260507053629 | 9 | 274 | 4.8 | 4.8 | 0.00 | 0.00 | 0.00 | 35 | 998.1 |
| 20260507053127 | 10 | 262 | 3.2 | 4.8 | 0.00 | 0.00 | 0.00 | 35 | 998.1 |
| 20260507052625 | 10 | 276 | 3.2 | 4.8 | 0.00 | 0.00 | 0.00 | 35 | 998.1 |
| 20260507052121 | 10 | 293 | 4.8 | 9.7 | 0.00 | 0.00 | 0.00 | 35 | 998.1 |
| 20260507051619 | 10 | 332 | 4.8 | 4.8 | 0.00 | 0.00 | 0.00 | 35 | 998.1 |
| 20260507051115 | 10 | 345 | 3.2 | 3.2 | 0.00 | 0.00 | 0.00 | 35 | 998.1 |
| 20260507050612 | 10 | 331 | 4.8 | 4.8 | 0.00 | 0.00 | 0.00 | 35 | 997.4 |
| 20260507050109 | 10 | 340 | 3.2 | 4.8 | 0.00 | 0.00 | 0.00 | 34 | 998.1 |
| 20260507045605 | 10 | 288 | 1.6 | 4.8 | 0.00 | 0.00 | 0.00 | 35 | 998.4 |
| 20260507045102 | 10 | 268 | 3.2 | 6.4 | 0.00 | 0.00 | 0.00 | 34 | 998.4 |
| 20260507044559 | 10 | 292 | 6.4 | 9.7 | 0.00 | 0.00 | 0.00 | 34 | 998.1 |
| 20260507044056 | 10 | 286 | 6.4 | 6.4 | 0.00 | 0.00 | 0.00 | 35 | 998.1 |
| 20260507043551 | 10 | 272 | 6.4 | 6.4 | 0.00 | 0.00 | 0.00 | 35 | 998.1 |
| 20260507043049 | 10 | 280 | 4.8 | 11.3 | 0.00 | 0.00 | 0.00 | 35 | 997.7 |
| 20260507042545 | 10 | 278 | 9.7 | 11.3 | 0.00 | 0.00 | 0.00 | 35 | 997.7 |
| 20260507042041 | 10 | 289 | 8.0 | 11.3 | 0.00 | 0.00 | 0.00 | 34 | 997.7 |
| 20260507041538 | 10 | 291 | 6.4 | 11.3 | 0.00 | 0.00 | 0.00 | 35 | 997.7 |
| 20260507041035 | 10 | 276 | 6.4 | 11.3 | 0.00 | 0.00 | 0.00 | 36 | 997.7 |
| 20260507040531 | 10 | 273 | 6.4 | 12.9 | 0.00 | 0.00 | 0.00 | 37 | 997.7 |
| 20260507040027 | 10 | 258 | 9.7 | 11.3 | 0.00 | 0.36 | 0.36 | 40 | 997.7 |
| 20260507035523 | 10 | 265 | 8.0 | 9.7 | 0.00 | 0.36 | 0.36 | 39 | 997.7 |
| 20260507035020 | 11 | 263 | 11.3 | 14.5 | 0.00 | 0.36 | 0.36 | 38 | 997.7 |
| 20260507034517 | 11 | 279 | 9.7 | 11.3 | 0.13 | 0.36 | 0.36 | 37 | 997.7 |
| 20260507034015 | 11 | 289 | 6.4 | 9.7 | 0.30 | 0.36 | 0.36 | 36 | 997.7 |
| 20260507033513 | 11 | 282 | 3.2 | 11.3 | 0.18 | 0.33 | 0.33 | 36 | 997.7 |
| 20260507033010 | 11 | 273 | 6.4 | 11.3 | 0.00 | 0.30 | 0.30 | 35 | 998.1 |
| 20260507032506 | 12 | 281 | 8.0 | 14.5 | 0.00 | 0.30 | 0.30 | 32 | 998.1 |
| 20260507032003 | 12 | 270 | 9.7 | 14.5 | 0.00 | 0.30 | 0.30 | 33 | 998.1 |
| 20260507031459 | 12 | 285 | 4.8 | 9.7 | 0.00 | 0.30 | 0.30 | 34 | 997.7 |
| 20260507030956 | 12 | 296 | 3.2 | 9.7 | 0.00 | 0.30 | 0.30 | 34 | 998.1 |
| 20260507030453 | 12 | 267 | 8.0 | 12.9 | 0.00 | 0.30 | 0.30 | 33 | 997.7 |
| 20260507025950 | 12 | 274 | 8.0 | 11.3 | 0.00 | 0.30 | 0.30 | 35 | 997.4 |
| 20260507025447 | 12 | 281 | 8.0 | 11.3 | 0.00 | 0.30 | 0.30 | 35 | 997.4 |
| 20260507024945 | 12 | 263 | 4.8 | 9.7 | 0.00 | 0.30 | 0.30 | 35 | 997.0 |
| 20260507024442 | 12 | 278 | 8.0 | 9.7 | 0.00 | 0.30 | 0.30 | 38 | 997.4 |
| 20260507023938 | 12 | 282 | 4.8 | 9.7 | 0.13 | 0.30 | 0.30 | 38 | 997.4 |
| 20260507023435 | 12 | 278 | 4.8 | 9.7 | 0.13 | 0.30 | 0.30 | 38 | 997.4 |
| 20260507022932 | 12 | 274 | 6.4 | 11.3 | 0.00 | 0.28 | 0.28 | 38 | 997.4 |
| 20260507022429 | 13 | 255 | 4.8 | 6.4 | 0.00 | 0.28 | 0.28 | 39 | 997.7 |
| 20260507021925 | 13 | 284 | 4.8 | 9.7 | 0.18 | 0.28 | 0.28 | 37 | 997.7 |
| 20260507021420 | 13 | 287 | 4.8 | 9.7 | 0.18 | 0.28 | 0.28 | 37 | 997.7 |
| 20260507020918 | 13 | 283 | 4.8 | 6.4 | 0.00 | 0.25 | 0.25 | 36 | 997.4 |
| 20260507020414 | 13 | 276 | 6.4 | 9.7 | 0.00 | 0.25 | 0.25 | 36 | 997.7 |
| 20260507015912 | 14 | 267 | 6.4 | 9.7 | 0.00 | 0.25 | 0.25 | 38 | 997.7 |
| 20260507015410 | 15 | 297 | 3.2 | 9.7 | 0.00 | 0.25 | 0.25 | 36 | 997.7 |
| 20260507014907 | 15 | 297 | 1.6 | 3.2 | 0.00 | 0.25 | 0.25 | 36 | 997.0 |
| 20260507014403 | 15 | 281 | 1.6 | 1.6 | 0.00 | 0.25 | 0.25 | 36 | 997.0 |
| 20260507013859 | 15 | 289 | 0.0 | 1.6 | 0.00 | 0.25 | 0.25 | 36 | 997.4 |
| 20260507013356 | 15 | 283 | 1.6 | 3.2 | 0.00 | 0.25 | 0.25 | 37 | 997.4 |
| 20260507012854 | 15 | 292 | 0.0 | 1.6 | 0.00 | 0.25 | 0.25 | 37 | 997.0 |
| 20260507012349 | 15 | 264 | 1.6 | 3.2 | 0.00 | 0.25 | 0.25 | 37 | 997.4 |
| 20260507011847 | 15 | 292 | 0.0 | 0.0 | 0.00 | 0.25 | 0.25 | 37 | 997.4 |
| 20260507011344 | 15 | 320 | 1.6 | 3.2 | 0.00 | 0.25 | 0.25 | 37 | 997.4 |
| 20260507010837 | 15 | 293 | 0.0 | 0.0 | 0.00 | 0.25 | 0.25 | 37 | 997.4 |
| 20260507010333 | 15 | 291 | 0.0 | 3.2 | 0.00 | 0.25 | 0.25 | 36 | 997.4 |
| 20260507005831 | 15 | 294 | 0.0 | 1.6 | 0.00 | 0.25 | 0.25 | 36 | 997.4 |
| 20260507005327 | 15 | 296 | 0.0 | 1.6 | 0.00 | 0.25 | 0.25 | 36 | 997.4 |
| 20260507004819 | 15 | 285 | 0.0 | 0.0 | 0.00 | 0.25 | 0.25 | 36 | 997.4 |
| 20260507004316 | 15 | 252 | 1.6 | 4.8 | 0.00 | 0.25 | 0.25 | 36 | 997.7 |
| 20260507003813 | 15 | 243 | 1.6 | 3.2 | 0.00 | 0.25 | 0.25 | 37 | 997.4 |
| 20260507003308 | 15 | 279 | 0.0 | 1.6 | 0.00 | 0.25 | 0.25 | 37 | 997.4 |
| 20260507002803 | 15 | 222 | 0.0 | 1.6 | 0.00 | 0.25 | 0.25 | 37 | 997.0 |
| 20260507002300 | 15 | 293 | 0.0 | 3.2 | 0.00 | 0.25 | 0.25 | 37 | 997.0 |
| 20260507001757 | 15 | 276 | 1.6 | 1.6 | 0.00 | 0.25 | 0.25 | 37 | 997.0 |
| 20260507001255 | 15 | 288 | 1.6 | 4.8 | 0.00 | 0.25 | 0.25 | 36 | 997.0 |
| 20260507000750 | 15 | 275 | 1.6 | 3.2 | 0.00 | 0.25 | 0.25 | 36 | 997.0 |
| 20260507000246 | 15 | 267 | 3.2 | 3.2 | 0.00 | 0.25 | 0.25 | 36 | 997.0 |
| 20260506235743 | 15 | 288 | 0.0 | 1.6 | 0.00 | 0.25 | 0.25 | 37 | 997.0 |
| 20260506235238 | 15 | 286 | 0.0 | 4.8 | 0.00 | 0.25 | 0.25 | 35 | 997.4 |
| 20260506234736 | 15 | 233 | 1.6 | 3.2 | 0.00 | 0.25 | 0.25 | 35 | 997.0 |
| 20260506234233 | 15 | 242 | 6.4 | 6.4 | 0.00 | 0.25 | 0.25 | 35 | 997.4 |
| 20260506233731 | 15 | 262 | 1.6 | 4.8 | 0.00 | 0.25 | 0.25 | 35 | 997.4 |
| 20260506233227 | 15 | 258 | 6.4 | 9.7 | 0.00 | 0.25 | 0.25 | 35 | 997.4 |
| 20260506232724 | 15 | 275 | 1.6 | 9.7 | 0.00 | 0.25 | 0.25 | 36 | 997.0 |
| 20260506232218 | 15 | 254 | 4.8 | 4.8 | 0.00 | 0.25 | 0.25 | 37 | 997.4 |
| 20260506231716 | 15 | 280 | 1.6 | 4.8 | 0.00 | 0.25 | 0.25 | 38 | 997.0 |
| 20260506231214 | 15 | 270 | 3.2 | 9.7 | 0.00 | 0.25 | 0.25 | 38 | 997.4 |
| 20260506230710 | 15 | 180 | 1.6 | 6.4 | 0.00 | 0.25 | 0.25 | 38 | 997.4 |
| 20260506230208 | 15 | 226 | 3.2 | 9.7 | 0.00 | 0.25 | 0.25 | 39 | 997.4 |
| 20260506225704 | 15 | 222 | 3.2 | 4.8 | 0.00 | 0.25 | 0.25 | 39 | 997.4 |
| 20260506225201 | 15 | 291 | 1.6 | 3.2 | 0.00 | 0.25 | 0.25 | 40 | 997.4 |
| 20260506224657 | 15 | 270 | 1.6 | 1.6 | 0.00 | 0.25 | 0.25 | 40 | 997.0 |
| 20260506224154 | 15 | 284 | 1.6 | 4.8 | 0.00 | 0.25 | 0.25 | 39 | 997.0 |
| 20260506223651 | 15 | 286 | 1.6 | 3.2 | 0.00 | 0.25 | 0.25 | 39 | 997.4 |
| 20260506223146 | 15 | 169 | 3.2 | 4.8 | 0.00 | 0.25 | 0.25 | 39 | 997.4 |
| 20260506222644 | 15 | 282 | 0.0 | 3.2 | 0.00 | 0.25 | 0.25 | 40 | 997.4 |
| 20260506222139 | 15 | 356 | 0.0 | 4.8 | 0.00 | 0.25 | 0.25 | 40 | 997.4 |
| 20260506221637 | 15 | 288 | 0.0 | 3.2 | 0.00 | 0.25 | 0.25 | 40 | 997.4 |
| 20260506221135 | 15 | 272 | 1.6 | 6.4 | 0.00 | 0.25 | 0.25 | 40 | 997.4 |
| 20260506220632 | 15 | 295 | 0.0 | 3.2 | 0.00 | 0.25 | 0.25 | 41 | 997.4 |
| 20260506220127 | 15 | 279 | 1.6 | 4.8 | 0.00 | 0.25 | 0.25 | 42 | 997.4 |
| 20260506215624 | 15 | 290 | 0.0 | 3.2 | 0.00 | 0.25 | 0.25 | 43 | 997.7 |
| 20260506215119 | 15 | 276 | 0.0 | 3.2 | 0.00 | 0.25 | 0.25 | 43 | 997.7 |
| 20260506214616 | 15 | 283 | 0.0 | 3.2 | 0.00 | 0.25 | 0.25 | 46 | 997.7 |
| 20260506214114 | 15 | 254 | 3.2 | 4.8 | 0.13 | 0.25 | 0.25 | 47 | 997.7 |
| 20260506213612 | 15 | 292 | 0.0 | 3.2 | 0.13 | 0.25 | 0.25 | 47 | 997.7 |
| 20260506213109 | 15 | 257 | 0.0 | 3.2 | 0.00 | 0.23 | 0.23 | 48 | 998.1 |
| 20260506212606 | 15 | 249 | 1.6 | 4.8 | 0.00 | 0.23 | 0.23 | 48 | 998.1 |
| 20260506212101 | 15 | 279 | 0.0 | 3.2 | 0.00 | 0.23 | 0.23 | 50 | 998.1 |
| 20260506211557 | 15 | 345 | 1.6 | 1.6 | 0.00 | 0.23 | 0.23 | 50 | 997.7 |
| 20260506211054 | 15 | 274 | 1.6 | 1.6 | 0.00 | 0.23 | 0.23 | 50 | 998.1 |
| 20260506210550 | 15 | 228 | 3.2 | 6.4 | 0.00 | 0.23 | 0.23 | 50 | 998.1 |
| 20260506210047 | 15 | 270 | 1.6 | 4.8 | 0.00 | 0.23 | 0.23 | 50 | 998.4 |
| 20260506205544 | 15 | 262 | 0.0 | 1.6 | 0.00 | 0.23 | 0.23 | 52 | 998.4 |
| 20260506205039 | 15 | 294 | 0.0 | 1.6 | 0.00 | 0.23 | 0.23 | 51 | 998.4 |
| 20260506204537 | 15 | 286 | 1.6 | 3.2 | 0.00 | 0.23 | 0.23 | 50 | 998.4 |
| 20260506204034 | 15 | 294 | 0.0 | 0.0 | 0.18 | 0.23 | 0.23 | 48 | 998.4 |
| 20260506203532 | 15 | 292 | 0.0 | 0.0 | 0.18 | 0.23 | 0.23 | 47 | 998.4 |
| 20260506203029 | 15 | 291 | 0.0 | 0.0 | 0.13 | 0.20 | 0.20 | 45 | 998.4 |
| 20260506202526 | 15 | 295 | 0.0 | 0.0 | 0.30 | 0.20 | 0.20 | 44 | 998.1 |
| 20260506202022 | 15 | 295 | 0.0 | 0.0 | 0.36 | 0.18 | 0.18 | 43 | 998.4 |
| 20260506201520 | 15 | 292 | 0.0 | 0.0 | 0.18 | 0.15 | 0.15 | 43 | 998.4 |
| 20260506201016 | 15 | 291 | 0.0 | 0.0 | 0.13 | 0.13 | 0.13 | 42 | 998.4 |
| 20260506200512 | 15 | 287 | 0.0 | 1.6 | 0.00 | 0.13 | 0.13 | 41 | 998.7 |
| 20260506200009 | 15 | 288 | 0.0 | 0.0 | 0.00 | 0.10 | 0.10 | 41 | 998.4 |
| 20260506195506 | 15 | 279 | 1.6 | 3.2 | 0.00 | 0.10 | 0.10 | 41 | 998.1 |
| 20260506194956 | 15 | 291 | 0.0 | 1.6 | 0.00 | 0.10 | 0.10 | 41 | 998.4 |
| 20260506194453 | 15 | 288 | 0.0 | 1.6 | 0.00 | 0.10 | 0.10 | 40 | 998.7 |
| 20260506193945 | 15 | 290 | 0.0 | 3.2 | 0.00 | 0.10 | 0.10 | 40 | 998.7 |
| 20260506193442 | 15 | 291 | 0.0 | 3.2 | 0.00 | 0.10 | 0.10 | 39 | 999.1 |
| 20260506192938 | 15 | 283 | 0.0 | 1.6 | 0.00 | 0.10 | 0.10 | 39 | 999.1 |
| 20260506192436 | 15 | 260 | 1.6 | 3.2 | 0.00 | 0.10 | 0.10 | 39 | 999.1 |
| 20260506191932 | 15 | 69 | 3.2 | 4.8 | 0.00 | 0.10 | 0.10 | 39 | 999.1 |
| 20260506191429 | 15 | 265 | 1.6 | 6.4 | 0.18 | 0.10 | 0.10 | 38 | 999.1 |
| 20260506190925 | 16 | 257 | 4.8 | 4.8 | 0.00 | 0.10 | 0.10 | 39 | 999.7 |
| 20260506190422 | 16 | 328 | 3.2 | 4.8 | 0.13 | 0.08 | 0.08 | 38 | 999.4 |
| 20260506185919 | 16 | 233 | 3.2 | 4.8 | 0.13 | 0.08 | 0.08 | 38 | 999.4 |
| 20260506185416 | 16 | 242 | 1.6 | 3.2 | 0.00 | 0.05 | 0.05 | 37 | 999.1 |
| 20260506184913 | 16 | 289 | 0.0 | 1.6 | 0.18 | 0.05 | 0.05 | 37 | 999.4 |
| 20260506184410 | 16 | 294 | 0.0 | 1.6 | 0.18 | 0.05 | 0.05 | 37 | 999.4 |
| 20260506183908 | 16 | 285 | 0.0 | 1.6 | 0.13 | 0.03 | 0.03 | 36 | 999.4 |
| 20260506183403 | 16 | 279 | 1.6 | 3.2 | 0.13 | 0.03 | 0.03 | 35 | 999.7 |
| 20260506182900 | 16 | 253 | 4.8 | 6.4 | 0.00 | 0.00 | 0.00 | 34 | 999.7 |
| 20260506182357 | 16 | 250 | 4.8 | 6.4 | 0.00 | 0.00 | 0.00 | 33 | 999.1 |
| 20260506181854 | 16 | 254 | 4.8 | 6.4 | 0.00 | 0.00 | 0.00 | 31 | 999.7 |
| 20260506181352 | 17 | 259 | 6.4 | 11.3 | 0.00 | 0.00 | 0.00 | 28 | 999.7 |
| 20260506180849 | 17 | 263 | 6.4 | 6.4 | 0.00 | 0.00 | 0.00 | 26 | 999.4 |
| 20260506180345 | 18 | 325 | 1.6 | 3.2 | 0.00 | 0.00 | 0.00 | 25 | 999.1 |
| 20260506175842 | 18 | 160 | 3.2 | 6.4 | 0.00 | 0.00 | 0.00 | 23 | 999.4 |
| 20260506175339 | 20 | 257 | 4.8 | 11.3 | 0.00 | 0.00 | 0.00 | 22 | 999.1 |
| 20260506174836 | 20 | 272 | 1.6 | 3.2 | 0.00 | 0.00 | 0.00 | 20 | 998.7 |
| 20260506174333 | 20 | 279 | 4.8 | 6.4 | 0.00 | 0.00 | 0.00 | 20 | 999.1 |
| 20260506173831 | 20 | 285 | 1.6 | 4.8 | 0.00 | 0.00 | 0.00 | 20 | 998.7 |
| 20260506173327 | 21 | 286 | 4.8 | 16.1 | 0.00 | 0.00 | 0.00 | 18 | 999.1 |
| 20260506172824 | 21 | 240 | 3.2 | 9.7 | 0.00 | 0.00 | 0.00 | 19 | 999.1 |
| 20260506172321 | 21 | 263 | 4.8 | 12.9 | 0.00 | 0.00 | 0.00 | 19 | 999.1 |
| 20260506171818 | 21 | 256 | 4.8 | 6.4 | 0.00 | 0.00 | 0.00 | 19 | 999.1 |
| 20260506171315 | 21 | 279 | 1.6 | 6.4 | 0.00 | 0.00 | 0.00 | 19 | 999.1 |
| 20260506170813 | 20 | 246 | 3.2 | 3.2 | 0.00 | 0.00 | 0.00 | 20 | 999.1 |
| 20260506170309 | 21 | 265 | 3.2 | 4.8 | 0.00 | 0.00 | 0.00 | 20 | 999.4 |
| 20260506165808 | 21 | 225 | 1.6 | 1.6 | 0.00 | 0.00 | 0.00 | 20 | 999.1 |
| 20260506165306 | 20 | 287 | 0.0 | 1.6 | 0.00 | 0.00 | 0.00 | 20 | 999.4 |
| 20260506164802 | 20 | 293 | 0.0 | 0.0 | 0.00 | 0.00 | 0.00 | 20 | 999.1 |
| 20260506164258 | 20 | 271 | 3.2 | 6.4 | 0.00 | 0.00 | 0.00 | 20 | 999.4 |
| 20260506163755 | 20 | 288 | 0.0 | 1.6 | 0.00 | 0.00 | 0.00 | 20 | 999.7 |
| 20260506163250 | 20 | 272 | 1.6 | 3.2 | 0.00 | 0.00 | 0.00 | 20 | 1000.1 |
| 20260506162746 | 20 | 249 | 4.8 | 4.8 | 0.00 | 0.00 | 0.00 | 20 | 1000.1 |
| 20260506162244 | 20 | 259 | 3.2 | 6.4 | 0.00 | 0.00 | 0.00 | 20 | 1000.1 |
| 20260506161741 | 20 | 255 | 1.6 | 4.8 | 0.00 | 0.00 | 0.00 | 21 | 1000.1 |
| 20260506161239 | 20 | 252 | 3.2 | 6.4 | 0.00 | 0.00 | 0.00 | 21 | 1000.4 |
| 20260506160736 | 20 | 238 | 4.8 | 4.8 | 0.00 | 0.00 | 0.00 | 21 | 1000.8 |
| 20260506160232 | 19 | 270 | 3.2 | 4.8 | 0.00 | 0.00 | 0.00 | 22 | 1000.8 |
| 20260506155731 | 20 | 261 | 1.6 | 4.8 | 0.00 | 0.00 | 0.00 | 22 | 1000.8 |
| 20260506155228 | 19 | 240 | 1.6 | 3.2 | 0.00 | 0.00 | 0.00 | 22 | 1000.8 |
| 20260506153340 | 19 | 292 | 0.0 | 4.8 | 0.00 | 0.00 | 0.00 | 22 | 1001.1 |
| 20260506152837 | 19 | 289 | 1.6 | 4.8 | 0.00 | 0.00 | 0.00 | 22 | 1001.1 |
| 20260506152335 | 19 | 277 | 1.6 | 3.2 | 0.00 | 0.00 | 0.00 | 22 | 1001.1 |
| 20260506151834 | 19 | 276 | 3.2 | 4.8 | 0.00 | 0.00 | 0.00 | 22 | 1001.1 |
| 20260506151330 | 20 | 217 | 1.6 | 6.4 | 0.00 | 0.00 | 0.00 | 22 | 1001.1 |
| 20260506150827 | 19 | 289 | 0.0 | 4.8 | 0.00 | 0.00 | 0.00 | 22 | 1001.1 |
| 20260506150324 | 19 | 289 | 0.0 | 4.8 | 0.00 | 0.00 | 0.00 | 22 | 1001.4 |
| 20260506145820 | 18 | 248 | 1.6 | 6.4 | 0.00 | 0.00 | 0.00 | 22 | 1001.1 |
| 20260506145317 | 18 | 282 | 3.2 | 12.9 | 0.00 | 0.00 | 0.00 | 23 | 1000.8 |
| 20260506144814 | 18 | 257 | 8.0 | 12.9 | 0.00 | 0.00 | 0.00 | 23 | 1000.8 |
| 20260506144311 | 18 | 229 | 4.8 | 4.8 | 0.00 | 0.00 | 0.00 | 23 | 1001.1 |
| 20260506143809 | 18 | 238 | 3.2 | 4.8 | 0.00 | 0.00 | 0.00 | 23 | 1001.1 |
| 20260506143306 | 18 | 236 | 3.2 | 3.2 | 0.00 | 0.00 | 0.00 | 24 | 1000.8 |
| 20260506142804 | 18 | 292 | 1.6 | 6.4 | 0.00 | 0.00 | 0.00 | 24 | 1001.1 |
| 20260506142301 | 18 | 255 | 6.4 | 12.9 | 0.00 | 0.00 | 0.00 | 24 | 1000.8 |
| 20260506141800 | 18 | 266 | 1.6 | 4.8 | 0.00 | 0.00 | 0.00 | 24 | 1000.8 |
| 20260506141258 | 18 | 282 | 1.6 | 9.7 | 0.00 | 0.00 | 0.00 | 24 | 1000.8 |
| 20260506140755 | 18 | 252 | 1.6 | 4.8 | 0.00 | 0.00 | 0.00 | 24 | 1001.1 |
| 20260506140252 | 17 | 276 | 1.6 | 3.2 | 0.00 | 0.00 | 0.00 | 24 | 1001.1 |
| 20260506135749 | 17 | 255 | 6.4 | 6.4 | 0.00 | 0.00 | 0.00 | 24 | 1001.4 |
| 20260506135245 | 17 | 243 | 6.4 | 6.4 | 0.00 | 0.00 | 0.00 | 23 | 1001.1 |
| 20260506134742 | 17 | 270 | 1.6 | 3.2 | 0.00 | 0.00 | 0.00 | 23 | 1001.1 |
| 20260506134239 | 17 | 291 | 0.0 | 4.8 | 0.00 | 0.00 | 0.00 | 23 | 1001.4 |
| 20260506133736 | 17 | 178 | 3.2 | 9.7 | 0.00 | 0.00 | 0.00 | 23 | 1001.4 |
| 20260506133232 | 17 | 323 | 1.6 | 6.4 | 0.00 | 0.00 | 0.00 | 23 | 1001.4 |
| 20260506132729 | 17 | 232 | 1.6 | 3.2 | 0.00 | 0.00 | 0.00 | 23 | 1001.4 |
| 20260506132227 | 17 | 250 | 9.7 | 11.3 | 0.00 | 0.00 | 0.00 | 23 | 1001.1 |
| 20260506131725 | 17 | 236 | 4.8 | 6.4 | 0.00 | 0.00 | 0.00 | 23 | 1001.1 |
| 20260506131220 | 17 | 277 | 1.6 | 4.8 | 0.00 | 0.00 | 0.00 | 23 | 1001.8 |
| 20260506130717 | 17 | 275 | 1.6 | 4.8 | 0.00 | 0.00 | 0.00 | 24 | 1001.4 |
| 20260506130214 | 17 | 222 | 3.2 | 9.7 | 0.00 | 0.00 | 0.00 | 24 | 1001.4 |
| 20260506125712 | 17 | 275 | 1.6 | 4.8 | 0.00 | 0.00 | 0.00 | 24 | 1001.4 |
| 20260506125210 | 17 | 231 | 6.4 | 6.4 | 0.00 | 0.00 | 0.00 | 23 | 1001.4 |
| 20260506124708 | 17 | 256 | 6.4 | 9.7 | 0.00 | 0.00 | 0.00 | 23 | 1001.4 |
| 20260506124205 | 17 | 270 | 3.2 | 6.4 | 0.00 | 0.00 | 0.00 | 23 | 1001.1 |
| 20260506123702 | 17 | 283 | 1.6 | 3.2 | 0.00 | 0.00 | 0.00 | 24 | 1001.4 |
| 20260506123202 | 17 | 167 | 3.2 | 4.8 | 0.00 | 0.00 | 0.00 | 23 | 1001.1 |
| 20260506122658 | 16 | 286 | 0.0 | 1.6 | 0.00 | 0.00 | 0.00 | 24 | 1001.4 |
| 20260506122155 | 16 | 258 | 1.6 | 12.9 | 0.00 | 0.00 | 0.00 | 24 | 1001.4 |
| 20260506121653 | 16 | 266 | 3.2 | 6.4 | 0.00 | 0.00 | 0.00 | 24 | 1001.4 |
| 20260506121149 | 16 | 266 | 3.2 | 4.8 | 0.00 | 0.00 | 0.00 | 24 | 1001.4 |
| 20260506120647 | 16 | 279 | 4.8 | 6.4 | 0.00 | 0.00 | 0.00 | 25 | 1001.1 |
| 20260506120144 | 16 | 293 | 0.0 | 1.6 | 0.00 | 0.00 | 0.00 | 24 | 1001.4 |
| 20260506115643 | 15 | 290 | 0.0 | 3.2 | 0.00 | 0.00 | 0.00 | 26 | 1001.8 |
| 20260506115140 | 15 | 293 | 0.0 | 0.0 | 0.00 | 0.00 | 0.00 | 26 | 1001.4 |
| 20260506114637 | 15 | 292 | 0.0 | 0.0 | 0.00 | 0.00 | 0.00 | 26 | 1002.1 |
| 20260506114135 | 15 | 292 | 0.0 | 0.0 | 0.00 | 0.00 | 0.00 | 27 | 1001.4 |
| 20260506113634 | 15 | 292 | 0.0 | 0.0 | 0.00 | 0.00 | 0.00 | 27 | 1001.8 |
| 20260506113130 | 15 | 304 | 0.0 | 1.6 | 0.00 | 0.00 | 0.00 | 27 | 1001.8 |
| 20260506112626 | 15 | 296 | 0.0 | 0.0 | 0.00 | 0.00 | 0.00 | 27 | 1002.1 |
| 20260506112124 | 15 | 295 | 0.0 | 1.6 | 0.00 | 0.00 | 0.00 | 27 | 1001.8 |
| 20260506111622 | 15 | 340 | 0.0 | 1.6 | 0.00 | 0.00 | 0.00 | 26 | 1002.1 |
| 20260506111119 | 15 | 296 | 0.0 | 0.0 | 0.00 | 0.00 | 0.00 | 28 | 1002.5 |
| 20260506110617 | 15 | 296 | 0.0 | 0.0 | 0.00 | 0.00 | 0.00 | 29 | 1002.1 |
| 20260506110114 | 15 | 296 | 0.0 | 0.0 | 0.00 | 0.00 | 0.00 | 28 | 1001.8 |
| 20260506105610 | 14 | 296 | 0.0 | 0.0 | 0.00 | 0.00 | 0.00 | 28 | 1002.1 |
| 20260506105107 | 14 | 294 | 0.0 | 0.0 | 0.00 | 0.00 | 0.00 | 27 | 1002.5 |
| 20260506104606 | 14 | 294 | 0.0 | 0.0 | 0.00 | 0.00 | 0.00 | 27 | 1002.5 |
| 20260506104103 | 14 | 293 | 0.0 | 0.0 | 0.00 | 0.00 | 0.00 | 27 | 1002.1 |
| 20260506103600 | 14 | 294 | 0.0 | 0.0 | 0.00 | 0.00 | 0.00 | 26 | 1002.1 |
| 20260506103056 | 15 | 293 | 0.0 | 0.0 | 0.00 | 0.00 | 0.00 | 26 | 1001.8 |
| 20260506102555 | 14 | 293 | 0.0 | 0.0 | 0.00 | 0.00 | 0.00 | 26 | 1002.5 |
| 20260506102052 | 14 | 291 | 0.0 | 0.0 | 0.00 | 0.00 | 0.00 | 26 | 1002.1 |
| 20260506101548 | 14 | 289 | 0.0 | 0.0 | 0.00 | 0.00 | 0.00 | 26 | 1002.1 |
| 20260506101046 | 14 | 290 | 0.0 | 0.0 | 0.00 | 0.00 | 0.00 | 26 | 1001.4 |
| 20260506100544 | 14 | 289 | 0.0 | 0.0 | 0.00 | 0.00 | 0.00 | 26 | 1001.8 |
| 20260506100041 | 14 | 284 | 0.0 | 0.0 | 0.00 | 0.00 | 0.00 | 26 | 1002.1 |
| 20260506095540 | 14 | 288 | 0.0 | 0.0 | 0.00 | 0.00 | 0.00 | 25 | 1002.1 |
| 20260506095036 | 14 | 289 | 0.0 | 0.0 | 0.00 | 0.00 | 0.00 | 25 | 1001.4 |
| 20260506094534 | 14 | 287 | 0.0 | 0.0 | 0.00 | 0.00 | 0.00 | 25 | 1001.4 |
| 20260506094032 | 15 | 287 | 0.0 | 0.0 | 0.00 | 0.00 | 0.00 | 25 | 1001.4 |
| 20260506093530 | 15 | 295 | 0.0 | 0.0 | 0.00 | 0.00 | 0.00 | 25 | 1001.8 |
| 20260506093027 | 15 | 346 | 0.0 | 0.0 | 0.00 | 0.00 | 0.00 | 25 | 1001.8 |
| 20260506092524 | 15 | 295 | 0.0 | 0.0 | 0.00 | 0.00 | 0.00 | 25 | 1001.8 |
| 20260506092020 | 14 | 294 | 0.0 | 0.0 | 0.00 | 0.00 | 0.00 | 25 | 1001.4 |
| 20260506091519 | 14 | 281 | 0.0 | 0.0 | 0.00 | 0.00 | 0.00 | 25 | 1001.4 |
| 20260506091016 | 14 | 294 | 0.0 | 0.0 | 0.00 | 0.00 | 0.00 | 25 | 1001.4 |
| 20260506090514 | 14 | 339 | 0.0 | 0.0 | 0.00 | 0.00 | 0.00 | 25 | 1001.8 |
| 20260506090010 | 14 | 295 | 0.0 | 0.0 | 0.00 | 0.00 | 0.00 | 24 | 1001.8 |
| 20260506085507 | 15 | 297 | 0.0 | 1.6 | 0.00 | 0.00 | 0.00 | 24 | 1001.8 |
| 20260506085004 | 15 | 338 | 0.0 | 0.0 | 0.00 | 0.00 | 0.00 | 22 | 1001.8 |
| 20260506084501 | 15 | 288 | 0.0 | 0.0 | 0.00 | 0.00 | 0.00 | 21 | 1001.4 |
| 20260506083956 | 15 | 292 | 0.0 | 0.0 | 0.00 | 0.00 | 0.00 | 21 | 1001.4 |
| 20260506083454 | 15 | 285 | 0.0 | 1.6 | 0.00 | 0.00 | 0.00 | 21 | 1001.8 |
| 20260506082951 | 15 | 286 | 0.0 | 1.6 | 0.00 | 0.00 | 0.00 | 22 | 1001.4 |
| 20260506082448 | 16 | 291 | 0.0 | 0.0 | 0.00 | 0.00 | 0.00 | 21 | 1001.8 |
| 20260506081943 | 16 | 274 | 0.0 | 0.0 | 0.00 | 0.00 | 0.00 | 20 | 1001.8 |
| 20260506081443 | 16 | 287 | 0.0 | 0.0 | 0.00 | 0.00 | 0.00 | 20 | 1001.4 |
| 20260506080939 | 16 | 296 | 0.0 | 0.0 | 0.00 | 0.00 | 0.00 | 20 | 1001.4 |
| 20260506080436 | 16 | 286 | 0.0 | 1.6 | 0.00 | 0.00 | 0.00 | 20 | 1001.4 |
| 20260506073420 | 16 | 288 | 0.0 | 1.6 | 0.00 | 0.00 | 0.00 | 20 | 1001.4 |
| 20260506072918 | 16 | 221 | 1.6 | 3.2 | 0.00 | 0.00 | 0.00 | 20 | 1001.4 |
| 20260506072414 | 16 | 291 | 0.0 | 1.6 | 0.00 | 0.00 | 0.00 | 20 | 1001.4 |
| 20260506071912 | 16 | 288 | 0.0 | 0.0 | 0.00 | 0.00 | 0.00 | 21 | 1001.8 |
| 20260506071410 | 15 | 291 | 0.0 | 1.6 | 0.00 | 0.00 | 0.00 | 21 | 1001.4 |
| 20260506070907 | 16 | 295 | 0.0 | 1.6 | 0.00 | 0.00 | 0.00 | 20 | 1001.4 |
| 20260506070404 | 16 | 297 | 1.6 | 3.2 | 0.00 | 0.00 | 0.00 | 20 | 1001.4 |
| 20260506062341 | 16 | 259 | 1.6 | 4.8 | 0.00 | 0.00 | 0.00 | 19 | 1001.1 |
| 20260506061837 | 16 | 228 | 6.4 | 6.4 | 0.00 | 0.00 | 0.00 | 19 | 1000.8 |
| 20260506061334 | 17 | 274 | 1.6 | 3.2 | 0.00 | 0.00 | 0.00 | 18 | 1000.8 |